Menu Close Menu
Station Historical Data
Daily Summary for November 20, 2017 Units:  English    Metric   Both
« Previous Day
Next Day »
Daily Weekly Monthly Yearly Custom
  High: Low: Average:
Temperature: 59.1 °F 29.4 °F 42.3 °F
Dew Point: 35.9 °F 26.4 °F 30.5 °F
Humidity: 90% 31% 66%
Wind Speed: 3.5mph 0.0mph 0.6mph
Wind Gust: 3.5mph - -
Wind- - West
Pressure: 30.31 in 30.20 in -
Precipitation: 0.00 in    
Historical Graphs
 
 
Tabular Data for November 20, 2017
Time Temperature Dew Point Pressure Wind Wind Speed Wind Gust Humidity Rainfall Rate (Hourly) solar Conditions
00:00 36.0 °F 29.5 °F 30.20 in Calm     77% 0.00 in WeatherDisplay:10.37 W/m2 CLR
00:05 35.9 °F 29.1 °F 30.20 in Calm     76% 0.00 in WeatherDisplay:10.37 W/m2 CLR
00:10 35.8 °F 29.0 °F 30.21 in Calm     76% 0.00 in WeatherDisplay:10.37 W/m2 CLR
00:15 35.6 °F 29.4 °F 30.21 in Calm     78% 0.00 in WeatherDisplay:10.37 W/m2 CLR
00:20 35.4 °F 29.5 °F 30.22 in Calm     79% 0.00 in WeatherDisplay:10.37 W/m2 CLR
00:25 35.2 °F 29.3 °F 30.21 in Calm     79% 0.00 in WeatherDisplay:10.37 W/m2 CLR
00:30 35.0 °F 29.1 °F 30.22 in Calm     79% 0.00 in WeatherDisplay:10.37 W/m2 CLR
00:38 34.8 °F 29.3 °F 30.22 in Calm     80% 0.00 in WeatherDisplay:10.37 W/m2 CLR
00:43 34.7 °F 29.2 °F 30.21 in Calm     80% 0.00 in WeatherDisplay:10.37 W/m2 CLR
00:48 34.6 °F 29.1 °F 30.21 in Calm     80% 0.00 in WeatherDisplay:10.37 W/m2 CLR
00:53 34.5 °F 29.0 °F 30.21 in Calm     80% 0.00 in WeatherDisplay:10.37 W/m2 CLR
00:58 34.4 °F 29.2 °F 30.22 in Calm     81% 0.00 in WeatherDisplay:10.37 W/m2 CLR
01:03 34.3 °F 29.1 °F 30.22 in Calm     81% 0.00 in WeatherDisplay:10.37 W/m2 CLR
01:08 34.2 °F 28.7 °F 30.22 in Calm     80% 0.00 in WeatherDisplay:10.37 W/m2 CLR
01:14 34.2 °F 28.7 °F 30.22 in Calm     80% 0.00 in WeatherDisplay:10.37 W/m2 CLR
01:19 34.1 °F 28.6 °F 30.22 in Calm     80% 0.00 in WeatherDisplay:10.37 W/m2 CLR
01:33 34.1 °F 28.6 °F 30.22 in Calm     80% 0.00 in WeatherDisplay:10.37 W/m2 CLR
01:38 34.0 °F 28.5 °F 30.22 in Calm     80% 0.00 in WeatherDisplay:10.37 W/m2 CLR
01:49 33.9 °F 28.7 °F 30.22 in Calm     81% 0.00 in WeatherDisplay:10.37 W/m2 CLR
01:54 33.7 °F 28.5 °F 30.22 in Calm     81% 0.00 in WeatherDisplay:10.37 W/m2 CLR
02:04 33.5 °F 28.3 °F 30.23 in Calm     81% 0.00 in WeatherDisplay:10.37 W/m2 CLR
02:09 33.4 °F 28.2 °F 30.23 in Calm     81% 0.00 in WeatherDisplay:10.37 W/m2 CLR
02:19 33.2 °F 28.0 °F 30.23 in Calm     81% 0.00 in WeatherDisplay:10.37 W/m2 CLR
02:24 33.1 °F 28.2 °F 30.23 in Calm     82% 0.00 in WeatherDisplay:10.37 W/m2 CLR
02:30 33.2 °F 28.0 °F 30.23 in Calm   0.1 mph 81% 0.00 in WeatherDisplay:10.37 W/m2 CLR
02:35 33.3 °F 28.1 °F 30.23 in WNW 1.2 mph   81% 0.00 in WeatherDisplay:10.37 W/m2 CLR
02:40 33.3 °F 28.1 °F 30.23 in WNW 1.2 mph 1.2 mph 81% 0.00 in WeatherDisplay:10.37 W/m2 CLR
02:45 33.4 °F 28.2 °F 30.23 in WSW 1.2 mph   81% 0.00 in WeatherDisplay:10.37 W/m2 CLR
02:50 33.5 °F 28.0 °F 30.23 in WSW 1.2 mph   80% 0.00 in WeatherDisplay:10.37 W/m2 CLR
02:55 33.4 °F 27.9 °F 30.23 in West 1.2 mph 1.2 mph 80% 0.00 in WeatherDisplay:10.37 W/m2 CLR
03:00 33.5 °F 28.0 °F 30.24 in WSW 1.2 mph   80% 0.00 in WeatherDisplay:10.37 W/m2 CLR
03:05 33.5 °F 28.0 °F 30.24 in WSW 1.2 mph   80% 0.00 in WeatherDisplay:10.37 W/m2 CLR
03:10 33.4 °F 27.9 °F 30.23 in West 1.2 mph   80% 0.00 in WeatherDisplay:10.37 W/m2 CLR
03:15 33.4 °F 27.9 °F 30.24 in West 1.2 mph   80% 0.00 in WeatherDisplay:10.37 W/m2 CLR
03:20 33.3 °F 27.8 °F 30.23 in West 1.2 mph   80% 0.00 in WeatherDisplay:10.37 W/m2 CLR
03:25 33.2 °F 27.7 °F 30.24 in SSW 1.2 mph   80% 0.00 in WeatherDisplay:10.37 W/m2 CLR
03:30 33.3 °F 27.8 °F 30.24 in SSE 1.2 mph   80% 0.00 in WeatherDisplay:10.37 W/m2 CLR
03:35 33.3 °F 27.8 °F 30.23 in South 1.2 mph 1.2 mph 80% 0.00 in WeatherDisplay:10.37 W/m2 CLR
03:41 33.3 °F 27.8 °F 30.23 in SSW 2.3 mph   80% 0.00 in WeatherDisplay:10.37 W/m2 CLR
03:51 33.0 °F 27.8 °F 30.24 in Calm     81% 0.00 in WeatherDisplay:10.37 W/m2 CLR
04:01 32.7 °F 27.8 °F 30.24 in Calm     82% 0.00 in WeatherDisplay:10.37 W/m2 CLR
04:11 32.6 °F 27.7 °F 30.24 in Calm     82% 0.00 in WeatherDisplay:10.37 W/m2 CLR
04:16 32.7 °F 27.5 °F 30.24 in West 1.2 mph   81% 0.00 in WeatherDisplay:10.37 W/m2 CLR
04:21 32.7 °F 27.5 °F 30.24 in SW 1.2 mph   81% 0.00 in WeatherDisplay:10.37 W/m2 CLR
04:26 32.7 °F 27.5 °F 30.24 in East 1.2 mph   81% 0.00 in WeatherDisplay:10.37 W/m2 CLR
04:41 32.5 °F 27.6 °F 30.24 in East 1.2 mph 1.2 mph 82% 0.00 in WeatherDisplay:10.37 W/m2 CLR
04:47 32.5 °F 27.6 °F 30.24 in ESE 1.2 mph   82% 0.00 in WeatherDisplay:10.37 W/m2 CLR
04:52 32.4 °F 27.5 °F 30.24 in ESE 1.2 mph   82% 0.00 in WeatherDisplay:10.37 W/m2 CLR
04:57 32.3 °F 27.4 °F 30.24 in Calm     82% 0.00 in WeatherDisplay:10.37 W/m2 CLR
05:02 32.2 °F 27.6 °F 30.24 in SSE 1.2 mph   83% 0.00 in WeatherDisplay:10.37 W/m2 CLR
05:07 32.1 °F 27.5 °F 30.25 in SW 1.2 mph   83% 0.00 in WeatherDisplay:10.37 W/m2 CLR
05:12 32.0 °F 27.4 °F 30.25 in Calm     83% 0.00 in WeatherDisplay:10.37 W/m2 CLR
05:17 31.8 °F 27.2 °F 30.25 in Calm     83% 0.00 in WeatherDisplay:10.37 W/m2 CLR
05:22 31.7 °F 27.4 °F 30.24 in Calm     84% 0.00 in WeatherDisplay:10.37 W/m2 CLR
05:27 31.7 °F 27.4 °F 30.24 in Calm     84% 0.00 in WeatherDisplay:10.37 W/m2 CLR
05:37 31.5 °F 27.2 °F 30.25 in Calm     84% 0.00 in WeatherDisplay:10.37 W/m2 CLR
05:42 31.4 °F 27.4 °F 30.25 in Calm     85% 0.00 in WeatherDisplay:10.37 W/m2 CLR
05:47 31.2 °F 27.2 °F 30.25 in Calm     85% 0.00 in WeatherDisplay:10.37 W/m2 CLR
05:52 31.1 °F 27.1 °F 30.25 in Calm     85% 0.00 in WeatherDisplay:10.37 W/m2 CLR
05:58 31.1 °F 27.1 °F 30.25 in North 1.2 mph   85% 0.00 in WeatherDisplay:10.37 W/m2 CLR
06:03 31.2 °F 27.2 °F 30.25 in NE 1.2 mph   85% 0.00 in WeatherDisplay:10.37 W/m2 CLR
06:08 31.1 °F 27.1 °F 30.26 in Calm     85% 0.00 in WeatherDisplay:10.37 W/m2 CLR
06:13 31.1 °F 27.1 °F 30.26 in Calm     85% 0.00 in WeatherDisplay:10.37 W/m2 CLR
06:18 31.0 °F 27.0 °F 30.26 in WSW 1.2 mph   85% 0.00 in WeatherDisplay:10.37 W/m2 CLR
06:23 30.8 °F 27.1 °F 30.26 in WSW 1.2 mph   86% 0.00 in WeatherDisplay:10.37 W/m2 CLR
06:28 30.6 °F 26.9 °F 30.26 in Calm     86% 0.00 in WeatherDisplay:10.37 W/m2 CLR
06:33 30.5 °F 26.8 °F 30.26 in Calm     86% 0.00 in WeatherDisplay:10.37 W/m2 CLR
06:38 30.5 °F 27.1 °F 30.26 in Calm     87% 0.00 in WeatherDisplay:10.37 W/m2 CLR
06:43 30.4 °F 27.0 °F 30.26 in Calm     87% 0.00 in WeatherDisplay:10.37 W/m2 CLR
06:48 30.3 °F 26.9 °F 30.26 in Calm     87% 0.00 in WeatherDisplay:10.37 W/m2 CLR
06:53 30.2 °F 26.8 °F 30.26 in Calm     87% 0.00 in WeatherDisplay:10.37 W/m2 CLR
06:59 30.1 °F 26.7 °F 30.26 in Calm     87% 0.00 in WeatherDisplay:10.37 W/m2 CLR
07:04 30.0 °F 26.9 °F 30.26 in Calm     88% 0.00 in WeatherDisplay:10.37 W/m2 CLR
07:09 29.8 °F 26.7 °F 30.26 in Calm     88% 0.00 in WeatherDisplay:10.37 W/m2 CLR
07:14 29.7 °F 26.6 °F 30.26 in Calm     88% 0.00 in WeatherDisplay:10.37 W/m2 CLR
07:19 29.6 °F 26.5 °F 30.26 in Calm     88% 0.00 in WeatherDisplay:10.37 W/m2 CLR
07:24 29.5 °F 26.4 °F 30.27 in Calm     88% 0.00 in WeatherDisplay:10.37 W/m2 CLR
07:29 29.4 °F 26.6 °F 30.27 in Calm     89% 0.00 in WeatherDisplay:10.37 W/m2 CLR
07:34 29.5 °F 26.7 °F 30.27 in Calm     89% 0.00 in WeatherDisplay:10.37 W/m2 CLR
07:44 29.7 °F 26.9 °F 30.27 in Calm     89% 0.00 in WeatherDisplay:10.37 W/m2 CLR
07:49 29.8 °F 27.2 °F 30.27 in Calm     90% 0.00 in WeatherDisplay:10.37 W/m2 CLR
07:55 30.0 °F 27.4 °F 30.28 in Calm     90% 0.00 in WeatherDisplay:10.37 W/m2 CLR
08:00 30.2 °F 27.6 °F 30.28 in Calm     90% 0.00 in WeatherDisplay:10.37 W/m2 CLR
08:09 30.5 °F 27.9 °F 30.28 in Calm     90% 0.00 in WeatherDisplay:10.37 W/m2 FEW
08:14 30.8 °F 28.2 °F 30.28 in Calm     90% 0.00 in WeatherDisplay:10.37 W/m2 FEW
08:24 31.3 °F 28.4 °F 30.29 in Calm     89% 0.00 in WeatherDisplay:10.37 W/m2 FEW
08:29 31.7 °F 28.8 °F 30.29 in Calm     89% 0.00 in WeatherDisplay:10.37 W/m2 FEW
08:34 32.2 °F 28.8 °F 30.29 in Calm   0.1 mph 87% 0.00 in WeatherDisplay:10.37 W/m2 FEW
08:49 34.3 °F 29.7 °F 30.29 in Calm     83% 0.00 in WeatherDisplay:10.37 W/m2 FEW
08:54 34.7 °F 29.5 °F 30.30 in East 1.2 mph   81% 0.00 in WeatherDisplay:10.37 W/m2 FEW
09:00 35.5 °F 29.9 °F 30.30 in East 1.2 mph 1.2 mph 80% 0.00 in WeatherDisplay:10.37 W/m2 FEW
09:05 35.9 °F 29.7 °F 30.30 in Calm   1.0 mph 78% 0.00 in WeatherDisplay:10.37 W/m2 FEW
09:13 36.6 °F 30.4 °F 30.30 in West 1.2 mph   78% 0.00 in WeatherDisplay:10.37 W/m2 FEW
09:18 37.0 °F 29.8 °F 30.30 in West 1.2 mph   75% 0.00 in WeatherDisplay:10.37 W/m2 FEW
09:28 38.0 °F 30.1 °F 30.31 in SSE 1.2 mph   73% 0.00 in WeatherDisplay:10.37 W/m2 FEW
09:38 39.2 °F 30.2 °F 30.31 in SSE 1.2 mph 1.2 mph 70% 0.00 in WeatherDisplay:10.37 W/m2 FEW
09:43 39.9 °F 30.5 °F 30.31 in South 1.2 mph 1.2 mph 69% 0.00 in WeatherDisplay:10.37 W/m2 FEW
09:48 40.9 °F 31.1 °F 30.31 in WSW 1.2 mph 1.2 mph 68% 0.00 in WeatherDisplay:10.37 W/m2 FEW
09:54 41.5 °F 31.0 °F 30.31 in West 1.2 mph 1.2 mph 66% 0.00 in WeatherDisplay:10.37 W/m2 CLR
09:59 42.1 °F 31.2 °F 30.31 in South 1.2 mph   65% 0.00 in WeatherDisplay:10.37 W/m2 FEW
10:04 42.5 °F 31.2 °F 30.31 in SE 1.2 mph   64% 0.00 in WeatherDisplay:10.37 W/m2 SCT
10:14 44.0 °F 31.8 °F 30.31 in West 1.2 mph   62% 0.00 in WeatherDisplay:10.37 W/m2 SCT
10:19 44.8 °F 31.3 °F 30.31 in West 1.2 mph 1.2 mph 59% 0.00 in WeatherDisplay:10.37 W/m2 SCT
10:24 45.4 °F 31.9 °F 30.31 in West 1.2 mph 1.2 mph 59% 0.00 in WeatherDisplay:10.37 W/m2 SCT
10:30 46.4 °F 33.7 °F 30.31 in North 1.2 mph   61% 0.00 in WeatherDisplay:10.37 W/m2 SCT
10:45 49.3 °F 30.4 °F 30.31 in WNW 1.2 mph 1.2 mph 48% 0.00 in WeatherDisplay:10.37 W/m2 SCT
10:50 49.6 °F 30.2 °F 30.30 in WNW 1.2 mph   47% 0.00 in WeatherDisplay:10.37 W/m2 SCT
11:00 50.4 °F 30.9 °F 30.30 in WNW 1.2 mph   47% 0.00 in WeatherDisplay:10.37 W/m2 SCT
11:05 50.4 °F 28.7 °F 30.30 in West 1.2 mph 1.2 mph 43% 0.00 in WeatherDisplay:10.37 W/m2 BKN
11:10 50.5 °F 30.5 °F 30.30 in WNW 3.5 mph   46% 0.00 in WeatherDisplay:10.37 W/m2 BKN
11:15 50.6 °F 28.3 °F 30.30 in NW 3.5 mph   42% 0.00 in WeatherDisplay:10.37 W/m2 BKN
11:20 50.8 °F 30.7 °F 30.30 in WNW 1.2 mph 1.2 mph 46% 0.00 in WeatherDisplay:10.37 W/m2 BKN
11:30 51.3 °F 29.0 °F 30.30 in NW 1.2 mph   42% 0.00 in WeatherDisplay:10.37 W/m2 BKN
11:41 51.7 °F 28.7 °F 30.30 in West 1.2 mph 1.2 mph 41% 0.00 in WeatherDisplay:10.37 W/m2 BKN
11:46 52.1 °F 29.7 °F 30.30 in West 1.2 mph 1.2 mph 42% 0.00 in WeatherDisplay:10.37 W/m2 BKN
11:51 52.3 °F 29.9 °F 30.30 in WNW 1.2 mph   42% 0.00 in WeatherDisplay:10.37 W/m2 BKN
11:56 52.7 °F 30.2 °F 30.29 in West 1.2 mph 1.2 mph 42% 0.00 in WeatherDisplay:10.37 W/m2 BKN
12:16 54.2 °F 30.4 °F 30.28 in NNW 2.3 mph 2.3 mph 40% 0.00 in WeatherDisplay:10.37 W/m2 BKN
12:21 54.5 °F 29.4 °F 30.28 in NW 2.3 mph 2.3 mph 38% 0.00 in WeatherDisplay:10.37 W/m2 BKN
12:26 54.6 °F 29.5 °F 30.27 in NW 3.5 mph 3.5 mph 38% 0.00 in WeatherDisplay:10.37 W/m2 BKN
12:31 55.0 °F 30.5 °F 30.27 in NW 3.5 mph 3.5 mph 39% 0.00 in WeatherDisplay:10.37 W/m2 BKN
12:36 55.0 °F 30.5 °F 30.27 in WNW 3.5 mph   39% 0.00 in WeatherDisplay:10.37 W/m2 BKN
12:42 55.6 °F 30.4 °F 30.27 in NNW 1.2 mph   38% 0.00 in WeatherDisplay:10.37 W/m2 BKN
12:47 56.4 °F 32.4 °F 30.27 in NNW 1.2 mph 1.2 mph 40% 0.00 in WeatherDisplay:10.37 W/m2 BKN
12:52 57.0 °F 31.0 °F 30.27 in NW 1.2 mph   37% 0.00 in WeatherDisplay:10.37 W/m2 BKN
12:57 56.9 °F 29.5 °F 30.26 in WNW 1.2 mph 1.2 mph 35% 0.00 in WeatherDisplay:10.37 W/m2 BKN
13:02 57.5 °F 31.4 °F 30.26 in NNW 1.2 mph 1.2 mph 37% 0.00 in WeatherDisplay:10.37 W/m2 BKN
13:07 58.7 °F 31.8 °F 30.26 in NNW 1.2 mph   36% 0.00 in WeatherDisplay:10.37 W/m2 BKN
13:12 59.1 °F 30.7 °F 30.26 in NW 1.2 mph   34% 0.00 in WeatherDisplay:10.37 W/m2 BKN
13:22 59.1 °F 28.5 °F 30.26 in WNW 1.2 mph   31% 0.00 in WeatherDisplay:10.37 W/m2 BKN
13:28 58.6 °F 28.0 °F 30.26 in NNW 2.3 mph 2.3 mph 31% 0.00 in WeatherDisplay:10.37 W/m2 BKN
13:38 57.9 °F 29.7 °F 30.25 in NW 1.2 mph   34% 0.00 in WeatherDisplay:10.37 W/m2 BKN
13:43 57.8 °F 28.9 °F 30.25 in NW 1.2 mph   33% 0.00 in WeatherDisplay:10.37 W/m2 BKN
13:48 57.8 °F 29.6 °F 30.25 in NNW 2.3 mph   34% 0.00 in WeatherDisplay:10.37 W/m2 BKN
13:53 57.9 °F 29.7 °F 30.25 in NW 2.3 mph 2.3 mph 34% 0.00 in WeatherDisplay:10.37 W/m2 BKN
13:58 57.6 °F 30.1 °F 30.25 in WNW 2.3 mph 2.3 mph 35% 0.00 in WeatherDisplay:10.37 W/m2 BKN
14:04 57.4 °F 28.5 °F 30.25 in WNW 2.3 mph 2.3 mph 33% 0.00 in WeatherDisplay:10.37 W/m2 BKN
14:09 57.4 °F 28.5 °F 30.25 in WNW 1.2 mph   33% 0.00 in WeatherDisplay:10.37 W/m2 BKN
14:19 57.4 °F 29.2 °F 30.25 in NW 2.3 mph   34% 0.00 in WeatherDisplay:10.37 W/m2 BKN
14:34 57.9 °F 29.7 °F 30.24 in WNW 1.2 mph   34% 0.00 in WeatherDisplay:10.37 W/m2 BKN
14:39 58.0 °F 31.8 °F 30.24 in WNW 1.2 mph   37% 0.00 in WeatherDisplay:10.37 W/m2 BKN
14:44 58.2 °F 30.7 °F 30.24 in WNW 1.2 mph   35% 0.00 in WeatherDisplay:10.37 W/m2 BKN
14:50 58.2 °F 30.7 °F 30.24 in Calm   2.0 mph 35% 0.00 in WeatherDisplay:10.37 W/m2 BKN
14:55 58.0 °F 28.3 °F 30.23 in Calm   2.0 mph 32% 0.00 in WeatherDisplay:10.37 W/m2 BKN
15:15 57.1 °F 28.2 °F 30.23 in WNW 1.2 mph   33% 0.00 in WeatherDisplay:10.37 W/m2 BKN
15:20 57.2 °F 28.3 °F 30.23 in NW 1.2 mph   33% 0.00 in WeatherDisplay:10.37 W/m2 BKN
15:25 57.5 °F 31.4 °F 30.22 in NNW 1.2 mph   37% 0.00 in WeatherDisplay:10.37 W/m2 BKN
15:30 57.6 °F 29.4 °F 30.23 in NNW 1.2 mph 1.2 mph 34% 0.00 in WeatherDisplay:10.37 W/m2 BKN
15:40 57.5 °F 30.0 °F 30.22 in NW 1.2 mph   35% 0.00 in WeatherDisplay:10.37 W/m2 BKN
15:45 57.5 °F 31.4 °F 30.22 in NW 1.2 mph   37% 0.00 in WeatherDisplay:10.37 W/m2 BKN
15:50 57.3 °F 29.9 °F 30.22 in WNW 1.2 mph   35% 0.00 in WeatherDisplay:10.37 W/m2 BKN
16:11 56.0 °F 31.4 °F 30.22 in Calm     39% 0.00 in WeatherDisplay:10.37 W/m2 BKN
16:16 55.8 °F 29.9 °F 30.22 in West 1.2 mph   37% 0.00 in WeatherDisplay:10.37 W/m2 BKN
16:26 55.5 °F 32.2 °F 30.22 in NW 1.2 mph   41% 0.00 in WeatherDisplay:10.37 W/m2 BKN
16:32 55.3 °F 32.0 °F 30.22 in Calm     41% 0.00 in WeatherDisplay:10.37 W/m2 BKN
16:37 55.1 °F 31.8 °F 30.21 in Calm     41% 0.00 in WeatherDisplay:10.37 W/m2 BKN
16:42 54.9 °F 32.8 °F 30.22 in Calm     43% 0.00 in WeatherDisplay:10.37 W/m2 BKN
16:47 54.6 °F 33.1 °F 30.21 in Calm     44% 0.00 in WeatherDisplay:10.37 W/m2 BKN
16:52 54.3 °F 32.8 °F 30.21 in Calm     44% 0.00 in WeatherDisplay:10.37 W/m2 BKN
17:12 53.0 °F 33.8 °F 30.21 in Calm     48% 0.00 in WeatherDisplay:10.37 W/m2 BKN
17:17 52.6 °F 34.5 °F 30.21 in Calm     50% 0.00 in WeatherDisplay:10.37 W/m2 BKN
17:27 51.8 °F 34.7 °F 30.21 in Calm     52% 0.00 in WeatherDisplay:10.37 W/m2 BKN
17:32 51.3 °F 35.2 °F 30.21 in Calm     54% 0.00 in WeatherDisplay:10.37 W/m2 BKN
17:37 51.0 °F 34.5 °F 30.21 in Calm     53% 0.00 in WeatherDisplay:10.37 W/m2 BKN
17:43 50.7 °F 34.6 °F 30.21 in Calm     54% 0.00 in WeatherDisplay:10.37 W/m2 BKN
17:48 50.4 °F 34.4 °F 30.21 in Calm     54% 0.00 in WeatherDisplay:10.37 W/m2 BKN
17:53 50.2 °F 35.5 °F 30.21 in Calm     57% 0.00 in WeatherDisplay:10.37 W/m2 BKN
17:58 49.9 °F 35.7 °F 30.21 in Calm     58% 0.00 in WeatherDisplay:10.37 W/m2 BKN
18:03 49.4 °F 35.7 °F 30.20 in Calm     59% 0.00 in WeatherDisplay:10.37 W/m2 CLR
18:13 48.5 °F 35.7 °F 30.20 in Calm     61% 0.00 in WeatherDisplay:10.37 W/m2 CLR
18:18 48.1 °F 34.9 °F 30.20 in Calm     60% 0.00 in WeatherDisplay:10.37 W/m2 CLR
18:23 47.9 °F 34.7 °F 30.20 in Calm     60% 0.00 in WeatherDisplay:10.37 W/m2 CLR
18:28 48.0 °F 34.3 °F 30.21 in Calm     59% 0.00 in WeatherDisplay:10.37 W/m2 CLR
18:33 48.0 °F 34.8 °F 30.21 in Calm     60% 0.00 in WeatherDisplay:10.37 W/m2 CLR
18:38 48.0 °F 34.3 °F 30.21 in Calm     59% 0.00 in WeatherDisplay:10.37 W/m2 CLR
18:43 47.8 °F 35.0 °F 30.21 in Calm     61% 0.00 in WeatherDisplay:10.37 W/m2 CLR
18:49 47.7 °F 34.9 °F 30.21 in Calm     61% 0.00 in WeatherDisplay:10.37 W/m2 CLR
18:54 47.7 °F 35.7 °F 30.21 in Calm     63% 0.00 in WeatherDisplay:10.37 W/m2 CLR
19:04 47.3 °F 34.5 °F 30.21 in Calm     61% 0.00 in WeatherDisplay:10.37 W/m2 BKN
19:23 47.2 °F 34.4 °F 30.23 in Calm     61% 0.00 in WeatherDisplay:10.37 W/m2 BKN
19:28 47.0 °F 35.0 °F 30.23 in Calm     63% 0.00 in WeatherDisplay:10.37 W/m2 BKN
19:33 46.9 °F 35.4 °F 30.23 in Calm     64% 0.00 in WeatherDisplay:10.37 W/m2 BKN
19:38 46.7 °F 34.8 °F 30.23 in Calm     63% 0.00 in WeatherDisplay:10.37 W/m2 BKN
19:46 46.3 °F 35.6 °F 30.24 in Calm     66% 0.00 in WeatherDisplay:10.37 W/m2 BKN
20:07 45.1 °F 35.9 °F 30.24 in Calm     70% 0.00 in WeatherDisplay:10.37 W/m2 BKN
20:12 45.0 °F 35.1 °F 30.24 in Calm     68% 0.00 in WeatherDisplay:10.37 W/m2 BKN
20:17 45.2 °F 34.9 °F 30.24 in Calm     67% 0.00 in WeatherDisplay:10.37 W/m2 BKN
20:42 44.7 °F 35.5 °F 30.24 in Calm     70% 0.00 in WeatherDisplay:10.37 W/m2 BKN
20:47 44.4 °F 34.9 °F 30.24 in Calm     69% 0.00 in WeatherDisplay:10.37 W/m2 BKN
20:52 44.3 °F 34.4 °F 30.24 in Calm     68% 0.00 in WeatherDisplay:10.37 W/m2 BKN
20:57 44.2 °F 34.7 °F 30.24 in Calm     69% 0.00 in WeatherDisplay:10.37 W/m2 BKN
21:02 44.2 °F 34.7 °F 30.24 in Calm     69% 0.00 in WeatherDisplay:10.37 W/m2 BKN
21:07 44.2 °F 34.3 °F 30.24 in Calm     68% 0.00 in WeatherDisplay:10.37 W/m2 BKN
21:13 44.4 °F 34.5 °F 30.24 in Calm     68% 0.00 in WeatherDisplay:10.37 W/m2 CLR
21:18 44.7 °F 34.8 °F 30.25 in Calm     68% 0.00 in WeatherDisplay:10.37 W/m2 CLR
21:23 44.5 °F 34.6 °F 30.24 in Calm     68% 0.00 in WeatherDisplay:10.37 W/m2 CLR
21:28 44.3 °F 34.8 °F 30.24 in Calm     69% 0.00 in WeatherDisplay:10.37 W/m2 CLR
21:38 43.6 °F 34.8 °F 30.24 in Calm     71% 0.00 in WeatherDisplay:10.37 W/m2 CLR
21:44 43.5 °F 34.4 °F 30.24 in Calm     70% 0.00 in WeatherDisplay:10.37 W/m2 CLR
21:54 43.6 °F 34.8 °F 30.24 in Calm     71% 0.00 in WeatherDisplay:10.37 W/m2 CLR
22:04 43.2 °F 34.4 °F 30.24 in Calm     71% 0.00 in WeatherDisplay:10.37 W/m2 BKN
22:09 42.9 °F 34.5 °F 30.24 in Calm     72% 0.00 in WeatherDisplay:10.37 W/m2 BKN
22:16 42.7 °F 34.3 °F 30.24 in Calm     72% 0.00 in WeatherDisplay:10.37 W/m2 BKN
22:22 42.6 °F 34.2 °F 30.24 in Calm     72% 0.00 in WeatherDisplay:10.37 W/m2 BKN
22:25 42.7 °F 34.3 °F 30.24 in Calm     72% 0.00 in WeatherDisplay:10.37 W/m2 BKN
22:29 42.8 °F 34.7 °F 30.24 in Calm     73% 0.00 in WeatherDisplay:10.37 W/m2 BKN
22:31 42.8 °F 34.7 °F 30.24 in Calm     73% 0.00 in WeatherDisplay:10.37 W/m2 BKN
22:36 42.8 °F 34.4 °F 30.24 in Calm     72% 0.00 in WeatherDisplay:10.37 W/m2 BKN
22:41 42.8 °F 34.4 °F 30.24 in Calm     72% 0.00 in WeatherDisplay:10.37 W/m2 BKN
22:46 42.7 °F 34.3 °F 30.24 in Calm     72% 0.00 in WeatherDisplay:10.37 W/m2 BKN
22:52 42.7 °F 34.6 °F 30.24 in Calm     73% 0.00 in WeatherDisplay:10.37 W/m2 BKN
23:02 42.4 °F 34.7 °F 30.24 in Calm     74% 0.00 in WeatherDisplay:10.37 W/m2 BKN
23:07 42.2 °F 35.2 °F 30.24 in Calm     76% 0.00 in WeatherDisplay:10.37 W/m2 BKN
23:17 41.7 °F 35.0 °F 30.24 in Calm     77% 0.00 in WeatherDisplay:10.37 W/m2 BKN
23:23 41.6 °F 34.9 °F 30.24 in Calm     77% 0.00 in WeatherDisplay:10.37 W/m2 BKN
23:28 41.6 °F 34.9 °F 30.24 in Calm     77% 0.00 in WeatherDisplay:10.37 W/m2 BKN
23:38 41.8 °F 34.5 °F 30.25 in Calm     75% 0.00 in WeatherDisplay:10.37 W/m2 BKN
23:59 41.9 °F 34.6 °F 30.25 in Calm     75% 0.00 in WeatherDisplay:10.37 W/m2 BKN
Piedmont Bend
Compliments of Weather Underground - 4 mb